Theta_e
337 336 335 336 337 339 340 341 341 341 341 342 342 342 342 341 341 341 341 340 340 340 340 340 340 341 341 340 340 340 339 339 340 340 339 339 339 337 337 337 337 338 337 338 338 338 336 335 335 335 335 335 335 335 335 334 335 335 334 336 335 333 333 333 333 331 331 331 331 332 332 331 334 334 333 331 330 329 329 330 329 331 332 331 331
334 334 333 333 334 335 336 337 337 338 338 339 340 340 341 341 341 341 340 340 340 339 339 340 340 341 341 341 341 340 340 339 340 340 339 340 339 338 338 337 336 337 338 338 338 338 336 336 335 335 335 335 335 336 335 334 335 335 335 335 334 333 333 333 332 331 331 331 330 331 332 332 334 335 333 332 331 330 330 330 329 331 332 331 331
332 331 331 330 331 332 333 334 334 334 335 335 336 338 338 339 340 340 340 340 340 340 340 340 340 340 341 341 341 341 340 339 339 340 340 340 339 338 338 338 337 337 337 337 338 338 336 335 335 334 334 334 335 336 335 333 333 334 334 334 334 333 332 333 332 332 332 331 330 331 333 333 335 334 333 333 332 331 331 331 330 330 331 331 331
329 328 329 329 329 330 330 331 332 332 332 332 333 334 335 337 338 339 340 340 340 340 340 340 340 340 341 341 341 341 340 339 339 340 340 340 339 339 339 339 338 337 337 337 337 337 336 336 335 335 334 333 335 336 335 334 332 332 332 332 333 333 332 332 332 332 332 332 331 332 333 333 335 334 333 333 332 332 331 331 331 331 331 330 331
327 327 327 328 328 328 328 329 330 330 330 331 331 332 332 334 335 336 337 338 339 339 339 340 340 340 340 340 340 340 340 340 340 339 339 339 339 339 339 339 338 337 337 337 336 336 336 336 335 335 335 334 334 335 335 335 333 332 330 329 331 332 333 333 332 332 332 332 331 332 333 334 335 334 334 334 331 331 332 331 331 331 330 330 330
326 326 327 328 327 327 327 327 328 328 329 329 329 330 330 331 332 334 335 336 337 337 338 339 339 339 339 340 340 339 339 339 338 338 338 339 339 339 338 339 339 338 337 337 337 336 336 336 336 335 335 335 335 335 335 335 334 334 332 330 330 331 333 333 332 331 331 331 330 332 333 334 334 334 335 335 333 332 332 332 331 330 330 330 330
325 326 326 327 327 326 326 326 326 327 327 328 328 328 329 329 331 332 332 334 334 335 336 337 338 339 339 339 339 339 339 339 338 338 338 339 339 339 338 338 338 337 337 337 337 336 336 337 336 336 335 335 335 335 336 335 335 335 333 332 331 332 333 333 332 331 332 332 331 332 333 332 332 332 333 335 335 333 332 332 332 331 329 330 330
325 325 325 326 326 326 326 325 326 326 326 326 327 327 327 328 329 330 330 331 332 332 333 335 336 337 338 339 339 339 339 339 338 338 338 338 339 339 339 338 338 337 336 336 337 336 336 337 337 336 336 335 335 335 335 335 335 336 335 334 333 333 333 333 332 332 332 333 333 333 334 332 332 332 332 333 333 334 333 332 332 331 330 330 330
324 324 325 325 325 325 325 325 325 325 325 325 325 326 326 327 327 328 328 328 329 330 331 332 333 334 336 337 338 338 338 338 338 338 337 337 338 338 338 338 338 338 337 336 336 336 336 336 336 336 336 335 335 334 334 334 335 336 335 335 334 333 333 333 332 332 332 333 333 334 333 333 332 332 332 331 330 332 334 333 332 331 331 331 330
324 323 324 324 324 325 324 324 324 324 324 325 325 325 325 325 326 326 326 327 327 328 329 330 331 332 334 334 336 336 337 337 337 337 337 337 338 338 337 337 337 338 337 336 336 336 337 337 337 337 336 336 335 335 334 334 334 335 335 335 335 334 333 332 331 332 333 333 333 333 333 333 332 331 331 331 330 332 334 333 332 331 331 331 331
322 322 323 323 323 323 323 323 323 323 323 323 324 324 324 324 325 325 325 325 326 326 327 328 328 330 330 331 332 333 334 335 336 336 336 336 336 336 336 336 336 336 336 336 336 336 336 336 336 336 335 335 336 335 335 334 334 335 335 335 334 334 334 333 332 332 333 333 332 332 332 333 332 331 332 331 331 332 332 331 331 331 331 331 331
321 321 321 322 322 322 322 322 322 322 322 322 322 323 323 323 323 324 324 324 324 325 325 326 326 327 328 329 330 330 332 333 334 335 335 335 335 335 335 335 335 335 335 335 335 335 336 336 336 336 335 335 334 335 335 335 334 335 335 335 334 334 334 333 333 332 333 334 333 332 331 332 332 332 332 331 330 331 331 331 331 331 331 330 331
320 320 320 320 321 321 321 321 321 321 321 321 321 321 322 322 323 323 323 323 323 323 324 325 325 326 326 327 328 328 329 330 331 332 332 333 334 334 335 335 335 335 335 335 334 335 335 335 336 335 335 335 334 333 334 334 335 335 335 335 335 335 334 334 334 333 333 333 333 332 331 331 331 331 332 331 330 330 330 330 330 329 329 330 331
319 319 319 319 320 320 320 320 320 320 320 320 321 321 321 322 322 322 322 322 322 322 323 323 323 324 325 325 326 326 327 327 328 329 330 332 333 333 333 334 335 335 334 334 334 335 335 335 334 334 334 334 334 333 333 332 333 334 334 334 334 334 334 334 334 333 333 333 333 333 332 331 330 331 331 331 330 330 330 330 330 329 329 329 330
318 318 318 319 319 319 320 320 319 319 319 320 320 320 320 320 321 321 321 321 321 321 322 322 322 323 323 323 323 324 324 325 327 327 328 330 331 332 332 333 334 334 334 333 334 334 335 335 334 333 333 333 334 333 332 332 331 332 334 335 334 334 334 334 333 333 333 333 333 333 332 331 331 331 331 331 330 330 330 330 330 329 329 329 330
317 317 318 318 319 319 319 319 319 319 319 319 319 319 319 319 320 320 320 320 320 320 320 321 321 322 322 321 322 322 322 323 324 325 326 327 328 330 332 333 333 333 333 333 333 333 334 335 334 333 333 333 333 333 332 333 331 330 332 334 334 333 334 334 333 332 333 333 333 333 333 332 331 331 331 331 331 330 330 330 330 329 329 330 331
317 317 318 318 318 318 318 318 318 318 318 318 318 318 319 319 319 319 319 319 319 319 320 320 320 321 321 320 321 321 321 322 322 323 323 324 325 328 330 331 332 332 333 333 333 333 334 334 334 334 333 332 332 332 332 333 331 330 332 334 334 334 334 334 334 333 333 333 333 333 332 332 331 331 331 331 331 330 330 330 329 328 329 330 331
317 317 317 318 318 318 318 318 318 317 317 317 318 318 318 318 318 318 318 318 319 318 319 319 319 319 319 319 320 320 320 321 320 320 320 322 323 325 325 326 327 328 329 331 331 333 333 333 334 334 334 333 332 332 333 333 332 332 332 333 333 333 333 333 334 333 333 333 333 332 332 332 332 332 331 331 331 331 331 330 329 329 329 329 330
317 317 317 317 317 317 317 317 317 317 317 317 317 317 317 317 317 317 317 318 318 317 318 318 318 319 319 319 319 319 319 319 319 319 319 320 321 321 322 322 323 324 325 327 328 330 332 332 333 333 333 333 332 332 332 332 332 332 332 332 333 333 333 333 334 333 332 332 332 332 332 332 332 331 331 331 331 331 331 329 329 329 329 329 329
317 316 316 317 317 317 317 316 317 316 316 316 316 316 316 316 316 316 317 317 317 317 317 317 318 318 318 318 318 318 318 318 318 317 318 318 318 319 320 320 321 322 323 324 325 327 329 330 331 332 331 331 331 330 330 330 330 331 331 332 332 332 333 333 332 332 332 331 332 332 332 332 332 331 331 332 332 332 331 330 330 330 329 329 328
316 316 316 316 316 316 316 316 316 315 315 315 316 316 315 316 316 316 316 316 316 316 316 316 317 317 317 317 317 317 317 316 316 316 316 316 316 317 318 318 319 320 321 322 323 324 326 327 329 330 330 329 329 329 329 328 329 329 330 331 332 332 332 331 331 331 331 331 332 332 332 332 332 332 332 332 332 333 332 330 331 331 329 328 328
316 315 316 316 315 315 314 314 314 313 313 313 314 314 314 314 315 315 315 315 315 316 316 316 316 316 316 316 315 315 315 315 315 315 315 315 315 316 316 316 316 317 318 320 321 322 324 325 326 328 329 329 328 328 329 329 329 329 328 329 331 332 331 330 331 332 332 332 331 331 331 331 332 332 331 331 332 333 332 331 331 331 329 328 328
315 315 315 315 314 313 313 312 312 312 311 311 311 311 311 312 313 314 314 314 315 315 315 315 315 315 315 315 314 314 314 315 314 314 314 314 314 314 314 314 314 315 316 317 318 319 320 322 324 326 329 330 329 327 327 328 328 329 328 327 329 331 331 331 332 332 332 332 331 330 329 330 330 331 330 330 331 333 333 332 331 330 330 328 328
314 314 314 313 312 312 312 311 311 311 311 310 310 310 310 310 311 313 313 313 314 314 314 314 314 314 314 314 313 313 314 314 313 313 313 313 312 313 313 313 313 313 313 314 314 315 316 319 321 324 327 328 329 328 327 327 328 329 329 328 329 331 331 331 331 331 331 331 331 330 329 330 331 330 330 329 330 332 333 332 331 330 330 329 328
314 313 313 312 312 312 311 311 311 311 311 310 310 310 309 309 310 311 312 312 313 313 313 313 313 313 313 313 312 313 313 313 312 312 312 312 311 311 312 311 311 311 311 311 311 311 313 315 317 321 324 326 327 327 326 326 327 328 330 329 329 329 330 331 330 329 329 330 330 330 330 331 331 330 330 330 330 331 332 332 331 330 330 329 328
313 313 312 312 312 312 311 311 311 311 311 310 310 310 309 309 309 310 311 311 312 312 313 313 313 312 312 312 312 312 312 311 311 311 311 311 311 310 310 310 309 309 309 309 308 308 309 312 313 317 321 322 321 320 319 320 323 325 328 329 328 328 329 329 328 327 328 328 329 330 330 330 331 330 330 329 329 330 330 332 331 330 330 329 328
312 312 312 312 312 312 311 311 311 311 310 310 310 309 309 308 308 309 310 310 311 311 312 312 312 312 311 311 311 310 310 310 310 310 310 310 310 309 309 309 308 308 308 307 306 306 307 308 309 312 316 316 314 315 315 316 318 320 323 326 328 328 329 329 328 327 328 329 328 329 330 330 330 331 330 329 329 330 330 331 331 330 330 330 328
312 312 312 311 311 311 311 310 310 310 310 310 309 309 309 308 308 308 309 310 310 311 311 311 311 311 310 310 310 310 310 310 309 310 310 309 309 308 308 308 308 307 307 306 305 305 305 305 305 307 311 311 310 309 309 310 313 316 319 322 325 327 328 329 328 328 328 329 328 328 328 329 329 330 331 330 330 330 330 330 330 330 331 331 329
311 311 311 311 311 311 310 310 309 309 310 310 309 308 308 308 307 308 308 309 310 310 310 310 310 310 310 310 309 309 309 309 309 309 309 309 308 308 307 307 307 306 306 306 305 304 304 304 303 304 306 308 305 303 303 305 307 311 314 318 322 324 327 328 328 328 329 328 328 328 327 328 329 330 331 331 330 330 329 329 330 331 331 330 328
310 310 310 310 310 310 309 309 309 309 309 309 309 308 308 307 307 307 308 308 309 309 309 309 309 309 309 309 309 308 308 308 308 308 308 308 308 307 307 307 307 306 306 305 305 304 304 303 302 302 303 304 302 299 300 303 305 307 310 314 318 321 325 327 328 328 328 328 329 329 329 329 330 330 330 331 331 330 329 329 331 331 331 330 328
309 309 309 309 310 309 308 309 309 309 309 309 308 308 307 307 307 307 307 307 308 308 308 308 308 308 308 308 308 308 307 307 307 307 307 307 307 307 307 307 307 306 306 305 304 304 304 303 302 301 301 302 300 298 299 301 304 306 308 311 314 318 321 324 326 328 328 327 328 329 330 330 330 329 329 329 330 330 330 330 331 331 331 331 329
308 308 308 308 308 308 308 308 308 309 308 308 308 307 307 307 307 306 306 307 307 307 307 307 307 307 307 307 307 307 307 307 306 306 306 306 306 306 306 306 306 306 306 305 305 304 304 303 302 302 301 301 300 298 298 300 302 304 306 309 312 315 318 321 324 326 327 327 327 328 330 330 329 328 328 328 329 330 330 330 330 331 330 331 329
308 308 308 308 308 307 308 308 308 308 307 307 307 307 307 307 306 306 306 306 306 306 306 306 306 306 306 306 306 306 306 306 306 305 305 305 305 305 305 305 305 305 305 305 305 304 304 303 302 302 301 301 299 298 298 299 300 303 305 308 311 314 316 319 322 323 325 327 328 329 329 329 330 330 330 329 329 330 330 330 330 330 330 329 329
308 308 307 307 307 307 307 307 307 307 306 307 306 306 306 306 306 306 306 306 306 306 306 305 305 305 305 305 305 305 305 305 305 305 305 304 304 304 304 304 304 304 304 304 304 304 304 303 302 301 301 301 300 298 298 298 299 301 304 307 310 313 315 317 320 322 324 325 326 327 328 328 328 329 330 330 330 330 330 330 329 328 328 329 329
307 307 306 306 306 307 307 306 306 306 306 306 306 306 306 306 306 306 305 305 305 305 305 305 304 304 304 304 305 305 305 305 304 304 304 304 304 304 304 304 304 303 303 303 303 303 303 303 302 301 301 301 300 298 297 297 298 300 303 306 310 312 313 315 318 320 322 323 324 326 326 327 327 328 328 328 329 329 330 329 328 327 327 328 328
307 306 305 305 305 306 306 306 305 305 305 305 305 305 305 305 305 305 304 304 304 304 304 304 304 304 303 303 304 304 304 304 304 303 303 303 303 303 303 303 303 303 303 303 303 302 302 301 301 301 300 300 299 298 297 297 297 299 302 305 307 309 311 314 316 318 320 323 324 325 326 326 327 327 327 327 327 328 329 328 326 325 326 326 326
306 305 304 304 304 305 305 305 305 305 304 304 304 305 305 304 305 304 304 304 304 303 304 303 303 303 303 303 303 303 303 303 303 303 303 302 303 303 302 302 303 303 302 302 302 302 301 300 300 300 299 299 298 297 297 297 297 297 299 301 302 304 307 311 312 314 318 322 324 325 325 326 326 326 326 326 326 326 327 326 325 325 325 324 324
304 304 304 304 304 304 304 304 304 304 304 304 304 304 304 304 304 304 304 304 303 303 303 303 303 303 302 302 302 302 302 302 303 303 302 301 301 302 302 302 302 302 302 302 302 301 301 300 300 299 299 298 298 297 297 297 297 297 297 297 298 300 302 306 309 311 315 318 321 323 324 325 326 326 326 326 326 326 325 325 325 326 324 322 322
304 304 303 303 303 304 304 304 304 303 304 304 304 304 304 304 303 303 303 303 303 303 302 302 302 302 302 302 301 301 301 301 302 302 301 300 300 300 301 301 301 301 302 302 301 301 301 300 300 299 299 298 297 297 297 297 297 297 297 297 297 297 299 302 305 307 310 312 313 316 319 322 323 325 326 326 325 324 324 324 326 326 323 321 322
303 303 303 303 303 303 304 304 303 303 303 303 304 304 304 304 303 303 303 303 303 303 302 302 302 301 302 302 301 301 301 300 300 301 301 300 299 299 300 300 301 301 301 301 301 301 300 300 300 299 299 298 297 296 296 297 297 297 297 297 297 296 297 299 300 301 304 306 307 309 312 315 317 320 323 324 324 324 323 323 325 325 322 321 321
303 303 303 303 303 303 303 303 303 303 303 303 303 303 304 304 303 303 303 302 302 302 302 302 301 301 301 301 301 301 300 300 300 300 300 299 298 298 299 299 300 300 300 301 300 301 301 300 300 299 299 298 297 296 296 297 297 297 297 297 297 297 297 297 297 297 298 300 301 303 305 308 310 314 318 321 321 322 323 322 324 324 323 322 322
302 302 302 303 303 303 303 303 303 302 302 302 303 303 303 303 303 303 303 302 302 302 301 301 301 301 301 301 301 301 300 300 300 299 299 299 299 298 298 298 299 300 299 299 300 300 300 300 299 299 299 298 297 297 296 296 297 297 297 297 297 297 297 297 297 296 296 297 298 300 302 303 306 309 314 317 318 318 320 320 321 322 323 323 322
302 302 303 303 303 303 303 303 303 303 302 302 302 302 303 303 303 302 302 302 302 301 301 301 301 301 301 300 301 301 300 300 299 299 299 299 299 298 298 298 298 298 298 298 299 299 300 299 298 298 298 298 298 297 296 296 296 297 297 297 297 297 297 297 296 296 296 296 296 298 300 302 303 304 308 313 314 315 316 318 320 321 322 321 319
303 303 302 302 303 303 303 303 302 302 302 302 302 302 303 303 303 302 302 302 301 301 301 301 301 301 301 300 300 301 300 300 300 299 299 299 299 298 298 298 298 298 298 297 298 298 298 298 298 298 297 297 297 297 297 296 296 296 297 297 297 298 298 297 296 296 295 295 296 297 298 300 302 301 302 306 310 311 312 315 318 319 319 318 317
302 302 302 302 302 302 302 301 301 301 301 301 301 302 302 303 303 302 302 301 301 301 300 301 300 300 300 300 300 300 300 300 300 299 299 299 299 298 298 297 297 297 297 297 296 297 297 297 297 297 297 296 296 296 297 297 296 296 296 296 297 297 298 298 297 296 296 295 296 296 297 298 299 299 298 300 304 305 306 308 311 314 315 314 313
302 302 302 301 301 301 301 301 301 301 301 301 301 302 302 302 302 302 302 301 301 301 300 300 300 300 300 300 300 300 300 300 300 300 299 299 299 298 298 297 297 297 296 296 296 296 296 297 297 296 296 296 295 295 296 296 297 296 296 296 296 296 297 298 298 297 297 297 296 296 296 296 296 297 296 295 297 300 302 302 303 305 307 307 307
302 301 301 301 301 300 301 300 301 301 301 301 302 302 302 302 302 302 302 301 301 301 300 300 300 300 300 300 300 300 300 300 300 300 299 299 299 299 298 297 296 296 296 296 296 295 295 296 296 296 295 295 294 294 294 295 296 296 296 296 296 296 296 296 296 296 296 296 296 296 296 296 296 296 295 294 294 296 298 297 298 299 300 300 301
302 301 301 300 300 300 300 300 301 301 301 302 302 302 302 302 302 302 302 301 301 301 300 300 300 300 300 300 300 300 299 300 301 300 299 299 299 299 298 297 295 294 295 295 295 295 295 295 295 295 294 294 294 294 294 294 295 296 296 296 296 296 295 295 295 295 295 295 296 296 296 296 296 295 295 295 294 294 295 294 294 295 296 296 297
302 301 301 300 300 301 301 301 301 301 301 302 302 302 302 302 301 301 301 301 301 301 300 300 300 300 300 300 300 300 299 300 300 301 300 299 298 298 298 297 295 294 294 294 294 294 294 294 294 294 294 294 294 294 294 294 294 295 296 296 296 296 296 295 294 294 295 295 295 294 294 293 293 293 293 293 293 294 294 294 294 293 293 294 295
301 301 300 301 301 301 301 301 301 301 301 302 302 302 302 301 301 301 301 301 301 301 300 300 300 300 300 300 300 300 299 299 300 300 300 300 299 299 298 297 296 295 294 294 294 294 293 293 294 294 294 294 293 293 294 294 294 295 296 296 296 296 296 296 295 294 295 294 293 292 292 291 291 291 291 291 291 292 292 293 294 294 293 293 293
301 300 300 301 301 301 301 301 301 301 301 302 302 302 302 301 301 301 301 301 301 301 300 300 301 301 300 300 300 300 299 299 299 299 299 299 299 299 299 298 297 297 295 294 294 294 293 293 293 293 293 293 293 294 294 294 295 295 295 296 297 297 296 296 296 295 294 294 293 292 291 291 291 291 291 291 291 291 291 291 292 293 293 293 293
Wind_Speed
13 17 18 19 19 19 17 16 16 16 15 13 12 10 8 6 5 6 5 3 0 2 2 3 4 5 5 5 6 7 6 6 7 7 7 8 7 7 9 9 11 13 13 14 14 15 16 16 16 17 17 18 18 16 16 17 15 15 16 17 18 18 15 14 14 12 7 4 8 11 11 11 8 9 12 11 10 12 12 12 13 13 15 16 15
12 15 16 17 18 19 19 20 19 19 18 17 16 14 12 10 8 6 4 3 2 3 4 4 4 5 5 5 5 6 5 3 4 5 6 7 7 7 7 8 10 13 14 14 15 16 17 17 17 18 19 19 19 18 18 19 17 15 18 19 19 19 17 15 15 12 7 7 7 7 9 11 10 11 12 12 11 11 12 13 13 14 16 17 16
11 11 14 16 17 17 17 17 17 17 18 19 18 16 14 13 10 7 6 4 2 3 4 5 5 5 5 5 5 6 5 5 5 5 6 7 8 8 7 8 9 12 14 16 17 17 17 17 19 20 20 20 19 19 19 20 20 18 19 20 19 19 18 17 15 13 10 10 8 4 4 5 7 10 13 14 12 11 14 14 14 16 16 16 16
9 9 11 13 15 16 16 15 15 16 17 17 18 17 16 15 13 10 8 6 4 4 4 6 6 6 6 5 5 5 5 6 5 5 5 6 7 8 8 8 10 12 14 16 18 18 18 18 19 21 21 21 20 21 21 21 21 21 22 22 20 18 17 17 17 17 15 12 8 3 2 2 3 6 10 15 15 13 15 16 15 17 17 16 16
8 9 9 11 13 14 14 14 14 15 15 15 16 16 15 15 15 13 11 9 8 7 7 7 7 7 7 6 5 5 6 6 5 5 5 5 6 7 7 7 9 11 13 15 17 18 18 19 20 22 22 21 21 22 23 22 22 22 23 24 24 21 19 18 18 20 20 17 12 5 1 2 2 4 6 10 16 16 16 18 17 17 17 16 17
8 9 9 11 12 12 13 14 14 14 14 13 14 14 15 15 16 14 13 12 11 11 11 11 10 9 8 8 7 6 6 6 6 7 7 6 7 8 8 8 8 10 12 14 16 17 18 19 20 22 23 22 22 23 23 23 23 23 24 25 26 25 21 18 17 19 20 21 20 13 7 4 2 4 4 2 10 15 15 17 18 19 19 18 18
8 9 9 10 11 12 13 13 13 13 13 13 13 14 15 15 15 15 15 14 13 12 13 14 13 11 9 9 8 8 8 7 8 8 9 9 8 9 10 10 10 10 12 14 16 18 18 19 20 21 23 23 23 24 24 25 24 24 25 26 26 26 24 20 19 19 18 19 23 21 15 10 5 5 4 1 3 9 14 16 16 18 21 20 19
8 9 9 10 11 12 12 12 12 12 12 13 13 14 14 15 15 15 15 14 15 14 14 15 15 13 12 11 9 9 9 9 10 9 9 9 9 9 10 11 12 12 13 15 16 18 19 20 20 21 23 25 25 26 27 27 26 25 25 26 26 26 27 26 23 20 18 18 22 23 20 16 12 9 8 4 0 3 8 13 15 18 21 20 18
8 8 9 10 11 11 11 11 12 11 11 11 11 12 12 13 13 14 14 14 14 14 14 15 15 14 13 13 12 11 11 11 12 11 11 10 10 11 11 11 13 13 13 14 15 16 18 18 19 21 22 24 26 28 29 28 26 26 27 27 27 28 29 29 26 23 22 20 20 21 20 17 16 15 13 9 6 5 4 6 11 15 16 18 19
8 9 10 10 10 11 11 11 11 11 11 10 10 10 10 11 11 11 12 12 12 13 14 15 15 14 14 15 15 15 14 14 14 13 12 12 12 12 12 13 14 13 12 12 14 16 17 17 19 20 20 21 23 25 29 29 27 28 28 29 30 29 29 30 29 27 25 24 22 21 20 18 14 12 13 13 11 8 5 4 8 12 12 14 20
7 8 9 10 10 10 11 11 11 11 10 10 10 10 10 11 11 10 11 11 11 12 13 14 15 14 15 15 16 17 17 16 16 16 15 15 15 14 13 14 15 14 13 12 12 14 15 17 19 21 21 21 22 24 27 28 28 28 28 30 32 31 30 30 30 30 27 25 25 24 23 22 18 15 15 16 12 7 6 4 9 15 14 14 20
7 7 8 9 9 10 10 10 10 10 11 11 11 10 10 10 11 11 11 12 12 12 13 13 13 14 15 16 16 16 16 16 16 16 16 16 16 16 15 15 16 16 16 14 14 14 14 16 19 21 22 22 23 23 25 26 28 28 28 29 30 30 30 28 29 31 30 27 26 27 27 26 25 22 19 20 18 14 8 4 9 13 11 12 19
6 6 7 7 8 9 9 10 10 11 11 10 10 10 9 10 11 11 12 12 12 12 13 13 13 14 14 15 16 16 16 16 16 16 16 16 16 16 17 16 16 17 17 18 17 16 15 16 18 21 22 23 22 23 25 25 26 27 27 28 28 28 29 30 31 32 32 31 29 29 29 27 28 25 21 21 22 18 12 8 10 10 8 12 18
6 6 6 6 8 9 9 9 9 10 10 9 10 10 10 11 13 13 14 14 13 13 12 12 13 13 14 15 16 17 17 17 17 17 17 16 16 18 19 18 18 18 18 19 19 17 17 18 18 19 21 22 22 23 25 24 24 26 26 26 27 27 27 29 33 33 33 33 32 30 30 30 29 26 24 24 23 20 17 13 9 7 8 11 14
6 6 6 7 9 9 9 9 9 9 10 10 10 11 11 12 12 13 13 13 14 14 13 12 12 12 12 14 15 16 17 18 18 18 18 18 17 18 19 19 20 21 21 21 20 18 18 18 19 18 19 21 22 22 23 24 24 24 25 28 27 26 26 30 33 32 31 33 33 31 31 30 29 27 25 26 26 23 19 16 11 5 5 7 7
6 6 7 8 9 9 9 9 9 9 9 10 10 10 11 11 11 12 13 13 14 14 13 13 13 12 13 15 15 15 16 17 18 19 20 20 20 19 19 20 21 22 23 23 21 20 18 19 20 20 20 21 22 21 22 25 24 22 25 29 28 25 27 29 30 31 32 33 33 32 30 29 29 28 27 26 27 26 22 19 18 13 8 6 5
7 7 8 8 9 9 9 9 9 9 9 9 10 10 10 11 12 13 13 14 14 14 14 14 14 14 15 16 17 16 16 16 17 19 20 21 21 21 20 21 21 21 22 22 22 22 20 20 20 21 21 21 21 22 23 24 23 22 23 25 26 27 28 28 28 30 31 32 32 32 31 29 29 28 27 25 25 26 24 22 22 22 15 7 5
8 7 8 9 9 9 9 9 9 9 9 10 10 11 12 13 13 13 13 14 14 14 14 15 15 15 16 17 18 18 17 17 17 19 20 21 21 22 22 23 23 23 24 23 24 24 23 22 22 21 21 20 20 22 22 22 22 23 24 25 26 27 28 28 28 29 31 31 30 31 30 29 28 27 27 26 25 25 24 22 23 24 20 14 8
8 7 7 8 9 9 9 9 10 10 10 11 12 13 13 12 12 13 13 14 14 14 14 15 15 15 16 17 17 17 17 18 19 20 20 20 21 22 23 24 25 25 25 25 25 25 25 25 24 22 20 19 20 21 21 21 22 23 24 26 27 25 25 26 27 28 31 30 29 29 27 28 28 27 27 26 25 26 25 23 24 24 24 23 16
8 7 7 8 10 10 9 10 10 11 11 12 13 13 12 12 13 13 13 13 14 14 15 15 15 16 17 17 18 19 18 19 20 20 19 20 21 22 23 23 24 24 24 25 25 26 26 27 26 25 23 21 21 23 24 23 23 24 25 26 26 24 25 27 27 28 30 29 29 28 27 28 28 27 27 26 25 26 26 26 25 23 22 22 19
8 7 8 9 10 10 10 11 11 11 12 12 13 14 13 13 13 13 13 14 15 15 15 16 16 17 18 19 19 20 20 20 21 20 20 21 21 21 22 23 23 23 23 24 25 25 26 26 27 28 26 23 22 23 25 24 25 27 27 27 26 25 26 27 27 29 30 29 28 27 26 27 27 27 28 27 27 27 27 28 26 22 20 20 18
8 8 8 9 10 10 11 12 12 12 13 13 13 13 13 13 13 14 15 15 15 16 16 17 17 18 19 19 19 19 20 21 22 21 21 22 22 21 22 23 24 24 24 24 24 25 25 26 26 28 29 26 23 23 24 24 25 27 28 28 26 26 26 26 27 27 28 29 29 29 29 27 26 27 28 27 27 26 26 27 26 23 22 22 20
9 9 9 10 10 10 11 12 13 13 13 13 13 13 14 14 14 15 16 16 16 17 16 17 18 19 20 20 19 20 20 22 22 22 23 23 23 22 23 23 24 24 25 26 26 27 27 27 26 27 27 26 24 23 24 25 26 27 28 29 27 26 26 26 27 27 26 28 29 29 29 28 26 25 27 28 26 22 22 24 25 25 23 22 19
10 9 10 11 11 11 12 12 13 13 13 14 13 13 14 15 15 15 16 17 17 17 17 18 18 19 20 21 21 21 22 23 23 23 24 24 23 23 23 23 24 24 25 25 26 28 29 28 27 26 26 26 25 25 25 26 27 25 25 25 25 24 25 26 26 27 26 25 26 27 27 27 26 25 26 29 27 23 20 22 24 24 24 23 20
10 10 10 11 12 12 12 13 13 12 13 13 14 14 14 16 16 16 16 17 17 17 17 18 19 19 20 21 21 21 22 23 24 24 25 24 24 24 24 23 24 25 25 25 27 28 28 28 27 26 26 26 24 23 24 25 25 23 22 24 24 23 24 24 24 25 25 23 23 26 27 26 26 27 28 27 26 24 22 23 24 24 25 25 21
10 10 9 10 11 12 13 13 13 12 12 12 13 14 15 16 17 17 17 17 18 18 18 18 19 19 20 20 21 22 23 23 24 24 24 25 25 25 25 25 25 25 26 26 29 30 28 28 27 26 26 26 24 23 24 23 23 22 22 24 24 22 22 22 22 23 23 23 22 23 25 25 24 26 27 25 23 24 24 25 26 26 25 24 22
10 9 9 10 11 12 13 13 13 12 12 12 14 15 16 17 17 18 17 17 18 18 18 19 20 19 19 20 20 21 22 23 23 23 23 24 25 25 26 25 25 26 26 27 29 30 29 28 29 27 25 26 28 28 28 27 25 24 23 22 21 21 22 21 20 22 23 23 24 24 25 25 24 25 26 25 24 25 24 25 27 26 23 23 23
9 9 10 10 10 11 13 13 12 11 9 10 14 15 16 17 18 18 17 17 18 18 18 19 19 19 20 20 20 20 21 22 22 22 23 24 24 25 25 25 26 26 26 27 29 29 29 31 33 31 26 28 33 35 36 34 31 28 25 22 20 21 23 21 19 20 21 21 22 24 27 27 26 26 26 26 26 27 25 24 26 26 22 22 23
10 10 10 10 10 11 12 11 9 9 10 12 15 17 16 17 17 17 17 17 17 17 17 18 19 19 19 19 19 21 21 22 23 23 24 24 24 25 25 25 26 26 26 27 28 29 29 32 36 36 30 29 37 43 42 38 34 30 28 25 22 20 22 23 21 20 21 20 20 23 26 27 27 27 27 26 27 28 27 26 27 26 24 23 22
10 10 10 10 10 10 11 9 5 7 13 16 16 17 16 16 17 17 17 17 17 17 17 18 18 18 19 19 20 20 21 22 23 23 24 24 25 25 26 26 26 26 26 27 28 29 29 29 33 38 36 31 38 48 45 38 34 31 29 27 24 21 20 22 22 21 21 20 19 20 24 26 26 26 26 25 27 29 29 28 27 27 26 25 24
10 10 9 10 10 11 11 6 3 7 16 17 15 15 15 15 16 16 17 17 17 17 17 17 17 18 19 19 19 20 21 21 22 23 24 24 25 25 26 26 26 26 26 27 28 27 28 29 28 33 37 33 38 50 49 41 37 32 29 28 26 24 21 20 20 20 21 20 19 20 21 22 24 25 25 26 28 29 29 28 28 29 29 27 25
10 9 9 9 10 10 6 2 4 12 19 16 14 15 15 15 15 16 16 16 17 18 18 18 19 19 19 19 19 20 21 21 22 23 23 23 24 25 25 26 26 27 26 26 27 26 27 28 26 29 35 34 37 48 52 47 41 35 31 28 26 24 22 20 20 20 22 22 20 19 19 19 21 23 24 26 27 26 26 27 29 32 32 31 31
9 9 9 9 10 7 3 5 9 16 19 15 13 14 14 14 14 15 16 16 17 18 18 19 20 20 20 20 21 21 21 22 23 23 23 23 24 24 25 26 26 26 26 26 27 26 26 27 29 32 34 31 36 48 53 50 46 40 33 29 25 24 22 20 20 20 22 21 19 18 18 18 19 19 21 23 24 25 25 27 29 30 32 32 33
9 9 10 10 9 5 7 10 14 18 18 15 12 12 13 13 14 15 15 16 17 18 19 19 20 20 21 21 21 21 21 22 23 23 24 24 24 24 25 25 25 25 27 27 27 27 26 27 32 37 33 28 34 46 51 51 50 45 36 29 25 22 21 20 19 20 21 20 19 20 20 20 18 19 20 21 22 23 24 28 31 29 29 31 30
9 10 11 10 8 7 11 15 16 17 16 13 12 12 13 13 13 14 16 17 17 18 18 18 19 20 21 22 22 21 22 22 23 24 24 24 24 25 25 25 24 25 26 26 26 27 28 27 31 35 34 30 34 44 49 50 52 49 39 31 26 22 21 20 20 20 21 20 19 20 20 20 18 17 18 19 21 23 23 25 29 29 28 28 28
9 10 9 9 9 9 12 14 14 14 13 12 12 12 13 14 14 14 16 16 17 17 18 18 19 20 21 22 22 23 23 23 23 24 25 25 24 24 25 25 24 24 25 25 25 26 28 28 29 31 32 31 34 42 48 49 51 51 44 35 31 27 25 23 21 21 21 20 19 18 18 18 18 17 18 19 22 24 23 20 21 24 25 23 22
9 9 8 9 9 10 11 11 11 12 12 12 12 12 13 14 14 15 15 15 16 17 17 18 19 20 21 22 22 23 23 23 23 24 26 27 25 24 25 25 24 23 24 25 25 25 26 27 28 30 31 31 33 41 47 48 49 51 47 40 34 31 27 24 23 23 21 20 19 18 16 17 17 17 19 22 23 24 23 20 19 23 22 19 20
9 8 8 8 9 10 10 11 12 12 12 12 13 13 13 14 14 15 15 15 15 16 17 18 19 19 20 22 23 24 24 24 25 25 27 28 27 26 25 25 24 23 23 23 25 25 25 27 27 28 30 32 34 39 45 47 47 49 48 41 35 33 31 28 27 25 22 18 14 13 15 16 16 17 19 20 21 23 23 21 21 20 18 18 21
9 9 9 9 9 10 10 11 12 12 12 12 13 13 13 14 15 15 15 15 15 16 17 17 18 18 19 21 23 23 23 24 25 25 26 27 27 27 26 25 24 24 23 22 24 24 25 26 26 27 29 31 34 38 43 46 46 47 47 43 38 36 35 31 29 27 24 22 17 10 7 10 13 16 18 18 16 18 18 18 19 15 15 19 22
10 9 9 8 9 10 11 11 12 12 12 12 12 13 14 14 14 14 15 15 15 15 16 17 18 19 19 20 22 22 23 24 23 22 23 25 28 28 27 26 25 24 23 22 23 24 24 24 26 27 28 30 32 37 42 43 44 45 45 43 41 39 36 32 29 29 28 26 24 20 14 11 12 12 15 17 16 16 14 14 17 14 15 19 19
9 9 9 9 9 10 11 11 11 12 13 13 12 13 13 13 14 15 15 15 15 15 15 15 17 18 19 19 20 22 24 24 23 22 21 22 27 29 27 26 26 24 24 24 23 23 24 25 25 26 28 29 31 36 40 41 41 43 44 43 42 40 37 34 31 30 30 29 29 27 23 20 19 15 12 11 12 14 12 12 15 15 14 17 17
8 7 8 9 9 10 10 11 11 12 13 13 13 13 13 13 14 15 14 14 15 15 14 16 17 17 18 19 18 19 22 21 22 24 21 21 25 28 26 26 25 24 25 25 24 24 24 25 25 26 27 28 29 34 39 40 39 40 41 42 41 38 35 33 33 33 33 31 30 28 25 23 21 17 11 7 6 7 7 10 13 14 14 16 18
9 8 8 9 10 10 10 11 11 11 11 12 12 12 12 12 13 13 12 13 14 14 14 15 16 15 17 18 16 17 20 21 21 23 22 21 25 26 25 25 25 24 24 24 24 24 24 24 24 26 27 27 28 31 37 40 39 39 39 39 38 37 35 33 33 33 33 34 33 30 26 23 23 22 16 7 5 5 2 8 11 12 14 16 17
10 9 9 10 11 11 10 11 11 10 10 11 11 12 11 11 11 11 11 13 14 14 15 15 15 14 16 17 16 15 18 19 21 23 22 21 23 24 23 23 23 22 22 22 23 23 23 23 23 24 26 27 28 30 34 37 39 38 38 38 36 35 35 35 34 33 33 35 35 33 29 25 24 27 25 18 15 14 12 11 12 15 19 22 22
10 11 11 11 11 11 11 10 10 10 10 10 11 11 10 10 9 9 11 11 11 12 14 15 15 14 16 17 17 16 15 16 18 21 20 19 20 21 21 22 22 22 21 21 21 21 21 21 21 22 24 26 28 30 33 35 36 36 37 38 36 34 32 33 34 35 34 34 34 33 32 31 29 29 31 28 25 24 21 19 19 21 23 25 25
11 11 11 12 11 11 11 10 10 10 10 9 10 11 10 9 9 9 10 10 9 11 14 14 14 15 16 16 17 16 15 14 16 18 18 17 17 18 19 20 21 21 20 20 20 20 20 19 19 20 22 24 27 31 33 33 34 34 35 36 36 36 33 30 30 32 32 33 34 35 35 36 35 34 34 34 32 31 30 28 26 25 26 26 27
10 11 11 11 10 10 10 10 9 10 9 9 10 10 9 9 10 10 9 9 10 11 13 13 14 14 14 15 16 17 16 14 14 15 17 17 15 15 17 18 18 19 20 19 20 21 21 20 18 19 21 23 26 30 32 32 31 31 32 33 34 35 35 32 31 31 32 33 34 35 35 36 37 37 36 37 37 36 36 35 33 30 30 30 30
10 10 10 11 10 10 10 10 9 9 9 9 9 9 8 9 11 10 10 11 11 12 12 12 13 14 14 14 15 16 16 14 12 12 14 16 15 14 14 15 16 18 19 19 19 21 22 21 19 18 20 22 26 30 32 31 29 27 27 29 31 32 33 33 31 31 32 33 34 35 36 37 37 38 38 38 39 40 39 38 35 32 32 32 32
11 12 12 11 10 9 9 10 9 8 8 9 8 8 9 10 10 10 10 11 12 13 13 12 12 13 14 13 14 15 16 15 12 9 9 13 15 15 13 11 13 16 19 21 21 22 23 22 20 20 20 21 25 29 31 31 29 25 23 24 26 28 29 29 29 29 31 34 35 36 37 36 36 36 36 35 35 36 37 37 35 33 32 32 33
12 12 11 10 10 10 9 9 9 8 8 8 8 8 9 10 9 9 9 8 8 11 13 13 12 13 13 13 14 15 15 16 15 12 8 7 10 13 13 12 12 14 17 20 22 23 25 25 24 23 22 22 24 27 29 30 29 27 23 20 21 24 27 27 27 27 29 32 33 32 32 32 31 32 33 32 32 32 32 33 32 31 31 32 32
12 11 11 10 10 10 9 9 8 8 8 8 8 7 8 9 9 9 9 8 8 10 12 13 13 13 13 12 14 14 14 14 14 14 13 10 9 10 11 12 13 14 14 17 20 23 24 26 28 27 25 25 26 25 26 28 28 28 26 20 18 21 25 25 25 26 27 28 28 28 29 29 28 29 30 29 30 30 30 29 29 29 29 29 30
Wind_Direction
62 58 50 45 41 44 52 54 56 55 51 49 46 45 51 56 67 76 67 60 61 292 292 277 267 264 265 262 268 276 269 260 257 251 246 247 245 219 214 213 207 211 215 216 215 216 219 221 225 225 223 219 216 223 226 226 230 234 237 237 235 235 236 238 235 230 219 219 253 245 229 229 223 213 207 209 218 208 206 209 199 200 200 199 207
65 57 49 45 41 42 46 48 48 47 44 41 39 40 44 47 48 47 43 48 31 318 316 318 301 296 300 295 291 297 300 292 278 266 250 243 244 229 221 216 211 211 211 217 221 222 224 223 222 223 224 222 221 222 225 228 228 229 235 237 238 236 237 237 230 229 213 177 210 238 231 230 232 231 218 214 224 213 207 212 208 209 209 205 204
63 55 49 44 40 39 40 43 43 41 41 39 38 36 35 38 34 23 19 16 343 315 314 316 312 305 302 298 298 298 291 284 280 270 263 253 246 241 231 217 215 222 219 216 221 226 228 226 224 226 226 227 228 227 229 233 230 229 234 237 236 233 234 233 224 222 203 173 187 230 229 224 234 236 228 223 221 215 212 209 211 218 215 209 204
65 59 50 46 43 39 38 40 41 40 40 38 36 33 28 28 25 20 20 8 355 351 325 311 313 311 301 295 292 291 288 288 286 278 272 264 260 260 250 228 217 226 229 222 224 229 233 232 229 228 227 227 229 230 230 232 230 228 232 235 233 228 228 230 224 220 207 179 168 192 241 235 239 220 219 226 221 218 220 212 213 219 216 211 204
69 66 56 53 49 42 40 39 41 42 39 34 32 29 25 24 24 23 20 17 18 10 351 332 323 319 313 306 298 296 300 303 302 297 287 273 267 265 257 244 226 227 237 239 236 234 234 236 235 230 229 228 229 230 228 229 229 227 230 233 231 228 225 225 224 220 215 204 186 169 174 212 239 191 188 223 223 223 224 217 218 221 222 217 206
74 74 67 64 59 52 46 40 40 40 37 34 30 28 24 22 25 24 20 18 15 7 2 355 341 331 322 311 305 301 301 301 303 305 302 288 271 265 259 249 235 231 238 244 245 243 238 236 237 235 233 232 233 233 232 230 228 226 228 231 231 229 224 221 221 219 220 219 206 198 200 186 148 158 161 213 220 223 226 223 223 224 227 220 206
79 79 73 69 66 60 54 44 42 38 33 32 27 25 22 20 21 19 17 15 8 2 2 0 353 345 334 318 306 303 304 304 302 299 295 290 279 273 271 262 250 240 235 237 243 248 247 242 240 241 238 237 238 236 235 234 231 228 228 230 231 226 220 216 217 215 217 220 215 214 222 223 193 168 185 178 202 224 227 230 228 223 228 223 209
84 81 75 72 68 65 61 53 47 39 33 32 27 24 20 18 18 14 13 11 4 359 358 356 354 350 343 333 323 316 312 308 306 301 295 293 286 280 282 279 272 263 247 238 242 247 247 246 246 246 245 244 245 242 240 239 236 232 230 229 229 224 220 218 216 213 211 213 215 218 224 228 224 214 213 209 242 249 222 231 234 225 231 226 210
86 82 74 71 69 66 64 60 54 44 37 36 31 26 22 20 19 17 14 7 1 358 355 352 352 350 347 346 344 336 327 321 316 309 301 296 290 287 286 279 274 275 260 242 243 244 243 245 247 250 251 249 250 249 244 241 239 238 234 231 229 225 223 221 219 217 216 214 212 214 217 222 228 231 230 215 217 246 217 217 224 220 233 230 213
85 81 73 69 67 65 63 60 55 45 37 38 33 27 26 22 17 18 16 6 0 358 353 352 353 353 350 351 351 347 343 339 331 325 320 313 305 300 294 284 277 276 270 255 250 246 243 244 246 249 252 251 253 253 250 245 242 242 240 234 231 228 226 223 222 221 221 219 214 210 206 206 210 223 229 214 208 234 235 219 222 212 219 222 213
86 79 73 67 62 61 60 55 49 42 37 36 32 26 26 22 13 17 19 9 5 0 354 352 352 353 353 351 351 349 348 344 338 334 333 330 324 319 314 307 295 284 280 275 268 262 254 249 249 253 254 253 253 254 255 251 246 245 244 240 236 233 229 224 223 222 221 221 219 216 211 205 205 209 213 206 200 219 225 226 232 216 209 210 208
88 80 71 64 60 58 56 54 48 43 39 35 33 30 27 25 18 20 23 14 7 2 358 356 354 354 354 352 352 350 348 344 339 337 336 335 330 327 325 320 311 300 293 286 281 278 267 254 253 257 255 254 254 254 254 253 251 250 246 242 238 235 231 227 224 222 221 221 220 221 221 215 214 214 207 201 203 215 227 243 234 216 212 218 209
79 75 69 61 60 59 55 55 50 44 41 37 38 35 29 29 25 26 28 20 14 8 2 1 359 356 355 354 353 352 350 346 341 337 335 333 328 325 322 317 312 308 301 297 293 286 274 262 256 257 259 258 259 258 256 253 252 249 247 244 241 237 234 231 229 227 223 222 222 222 222 220 219 216 207 204 206 209 215 235 244 233 226 221 205
76 73 73 69 67 64 61 59 54 50 44 39 41 37 29 27 26 26 25 20 18 14 9 9 4 359 358 357 355 353 350 345 339 335 331 328 325 321 318 311 306 304 303 302 301 294 285 274 265 265 267 263 258 257 257 255 251 248 249 249 245 243 238 232 231 230 227 224 223 223 221 221 222 217 212 212 210 208 208 212 231 257 259 239 205
81 79 77 76 74 70 67 62 55 52 45 37 38 36 30 24 23 26 22 18 19 16 13 12 6 5 6 1 357 353 348 342 337 334 330 327 324 320 315 310 306 305 304 302 301 299 294 287 282 278 274 269 263 257 255 255 253 251 251 249 248 246 241 237 235 232 228 225 223 224 222 221 221 219 216 215 214 217 217 209 203 211 264 258 224
88 85 80 77 75 71 70 65 57 53 47 42 38 35 32 23 18 23 22 19 20 15 10 8 5 7 10 6 1 356 352 346 339 336 333 330 327 321 316 312 311 310 308 306 304 302 300 296 294 290 283 277 269 261 257 256 255 254 253 252 251 246 242 242 240 233 229 227 225 225 222 220 219 217 217 218 221 225 223 215 205 200 214 225 212
90 85 81 76 73 70 70 67 61 56 49 46 42 36 36 29 20 21 22 19 18 13 8 8 7 7 7 5 2 359 356 353 346 340 336 333 329 325 322 321 323 323 319 316 312 308 304 299 296 294 290 285 276 269 266 266 264 257 254 254 252 248 244 241 238 234 229 227 226 225 222 219 217 216 216 218 222 224 223 221 213 209 222 235 197
94 89 84 79 76 70 69 67 62 59 53 47 43 37 36 33 25 21 21 19 18 14 10 11 11 8 6 3 2 0 358 356 352 346 340 336 334 332 331 330 330 330 329 327 324 319 313 306 302 298 294 290 286 279 276 276 274 266 259 256 252 252 249 241 237 235 231 228 227 224 221 219 217 216 217 217 218 221 222 224 221 216 222 238 234
98 95 88 84 82 74 69 67 61 58 53 47 44 41 37 33 28 24 23 21 18 14 14 16 13 8 8 6 2 360 359 358 354 349 345 342 339 336 334 333 330 329 329 328 328 327 323 318 313 306 299 296 294 290 284 278 271 266 262 257 253 250 245 241 239 237 234 232 229 222 218 218 218 217 219 219 218 223 226 226 230 228 220 226 237
102 100 96 87 82 76 70 66 61 57 53 47 44 43 37 32 31 29 26 23 19 16 16 18 15 10 10 9 5 3 3 359 353 351 351 347 342 339 336 334 331 330 328 326 326 327 327 327 324 317 311 307 304 302 297 288 279 274 266 260 257 250 242 242 241 237 235 233 228 223 218 218 219 217 219 220 216 218 220 217 222 227 221 224 239
105 100 96 88 82 77 73 66 59 55 53 50 47 43 37 33 32 28 26 27 24 19 18 19 16 14 14 12 8 6 3 359 355 355 354 349 346 343 341 339 337 335 333 330 327 326 325 326 327 324 319 315 311 308 305 299 294 289 276 267 261 250 246 248 244 239 235 229 226 224 220 220 220 218 218 218 216 217 216 212 214 217 211 212 224
103 97 92 86 80 75 73 69 63 55 50 50 49 46 38 35 34 29 25 26 24 21 21 22 18 16 17 14 10 7 2 359 359 359 357 354 351 348 346 345 344 342 339 337 335 332 328 325 324 324 323 321 314 307 305 301 296 289 281 275 265 252 252 252 244 239 233 226 225 226 223 220 220 221 222 220 219 221 220 218 220 220 215 208 202
101 96 88 82 78 72 70 69 64 58 50 47 48 47 40 36 36 33 28 23 21 21 23 24 21 19 18 15 11 8 4 2 3 2 1 360 355 352 352 351 349 347 345 344 343 342 339 333 328 323 323 324 320 313 310 305 298 289 280 277 270 259 255 250 242 238 233 226 224 225 225 222 219 220 224 227 224 221 222 222 223 224 226 220 206
98 93 85 80 74 68 64 60 57 55 50 44 43 43 41 37 35 34 31 24 20 21 23 24 23 22 20 17 13 8 4 5 6 5 4 2 358 356 356 355 355 353 351 350 348 347 346 345 340 331 326 326 321 317 316 311 304 295 283 279 278 270 261 252 244 241 237 230 223 222 224 224 222 220 222 227 226 221 221 223 223 222 221 221 218
97 90 82 75 70 64 59 55 50 48 46 44 41 38 37 37 34 33 31 26 22 21 24 26 26 24 20 17 14 10 7 6 5 4 3 2 2 1 360 360 360 358 357 356 354 353 352 353 350 342 341 341 333 326 328 323 315 306 292 284 282 277 268 257 248 244 242 237 230 225 223 223 222 219 218 222 223 221 221 222 221 219 217 219 217
96 90 82 74 68 62 57 53 48 43 41 41 39 36 34 34 34 32 29 27 21 19 23 27 28 26 21 18 16 12 9 7 5 4 3 3 5 5 4 4 3 1 1 360 359 359 358 355 352 350 354 1 1 355 351 344 332 320 306 292 282 276 271 261 254 251 246 241 238 232 226 224 221 217 218 220 220 219 219 220 219 215 214 215 209
96 91 85 76 68 63 59 54 49 46 43 42 39 34 32 31 31 30 29 27 22 18 22 27 28 26 22 20 19 14 11 9 6 4 5 5 7 8 6 6 5 5 4 2 1 1 360 359 0 0 0 3 6 5 360 354 345 336 325 310 297 285 274 265 260 260 252 242 240 236 230 226 222 221 223 222 220 219 218 219 218 214 209 209 205
97 88 82 78 71 65 59 53 50 45 43 53 51 39 31 30 29 27 27 27 24 21 23 27 28 26 23 21 20 15 12 10 7 8 8 8 8 9 8 8 8 8 7 4 3 2 2 4 8 9 4 358 2 5 1 356 349 342 335 324 312 298 285 275 267 262 256 247 241 238 236 233 228 226 225 223 222 223 222 222 221 213 203 204 205
92 83 79 76 70 66 61 56 54 46 39 48 53 42 31 30 30 25 26 28 25 24 26 27 28 26 23 21 20 17 14 11 10 10 9 8 9 9 9 10 9 9 8 6 6 5 4 6 9 12 11 2 2 4 1 356 352 346 340 332 319 307 296 287 278 266 258 254 248 243 239 237 233 229 228 227 226 224 223 223 221 212 201 200 201
90 84 79 72 67 67 62 52 42 51 48 45 46 42 30 28 30 25 25 29 26 25 27 28 27 26 25 23 21 19 16 14 14 12 10 9 8 8 9 10 11 10 9 7 7 7 6 7 8 11 13 8 4 4 2 357 354 350 343 337 328 315 303 290 280 270 264 261 259 252 241 235 235 232 230 230 228 225 223 222 222 218 209 201 191
92 83 80 76 67 63 60 39 343 56 58 43 38 43 34 28 30 27 26 30 29 27 27 26 26 27 26 25 22 20 18 17 16 14 13 11 9 8 8 8 9 10 10 9 9 9 8 7 7 8 11 10 3 4 4 360 356 352 345 340 333 323 312 295 284 279 276 273 268 260 251 243 240 236 232 232 229 226 224 222 225 225 219 212 203
93 83 79 76 68 64 60 347 360 60 64 46 29 39 37 29 30 29 27 31 33 31 27 26 26 25 25 23 22 21 19 19 19 17 14 13 11 11 9 7 6 6 7 9 10 11 9 7 5 5 7 7 2 2 4 3 359 355 348 340 332 327 319 303 291 284 282 281 272 262 260 253 245 239 237 235 231 228 228 225 226 229 229 230 228
91 86 78 69 69 66 17 357 33 59 66 54 35 37 36 31 32 32 30 32 35 34 31 29 28 25 24 22 21 21 18 18 19 16 15 15 13 13 11 8 5 4 5 6 7 9 12 11 9 5 2 4 3 1 3 5 2 357 351 343 334 329 323 313 299 289 283 280 271 261 258 253 250 246 239 235 232 230 231 228 226 226 225 226 226
98 88 78 69 67 48 12 27 48 57 57 51 43 40 38 36 36 34 33 34 36 36 33 31 30 27 25 23 20 20 21 21 19 15 16 16 14 13 12 9 9 7 6 5 4 6 11 13 12 9 4 3 3 1 3 5 3 0 356 349 342 336 331 323 312 301 290 279 274 273 264 254 255 256 247 240 233 228 228 228 225 218 214 215 216
88 77 73 70 63 40 33 42 51 52 50 46 43 44 43 40 38 38 37 36 35 36 33 30 30 29 27 23 19 19 21 23 21 17 17 19 17 15 12 9 11 12 9 7 6 7 8 9 9 9 7 5 3 3 6 7 5 4 1 357 355 351 343 334 325 315 303 286 277 279 268 253 254 258 254 247 236 227 224 224 221 218 217 217 216
82 76 75 73 63 51 51 54 54 55 55 48 43 46 47 43 39 40 40 37 36 35 31 29 30 31 29 25 20 20 20 19 20 20 19 18 17 18 14 9 10 13 12 10 10 10 10 9 8 8 8 6 3 5 8 9 8 7 6 6 4 357 347 340 334 328 318 298 280 277 275 266 260 257 253 251 243 231 222 217 217 219 219 214 209
92 87 84 82 74 68 65 63 62 62 61 53 46 47 50 47 42 41 39 38 38 36 32 29 30 31 32 28 23 22 21 17 18 23 22 16 13 15 15 13 10 12 14 13 12 12 12 10 9 10 10 7 6 7 10 12 12 11 11 9 5 357 351 347 342 336 327 311 289 277 281 280 270 263 260 257 253 241 226 216 219 221 214 205 201
112 104 95 87 80 78 74 69 67 63 62 62 54 48 49 49 46 43 38 35 37 38 35 33 31 30 33 34 29 25 24 20 19 24 25 17 11 11 12 13 12 10 13 16 14 13 13 12 9 10 11 10 9 9 12 14 14 14 15 12 5 0 359 357 353 348 345 341 319 287 279 278 270 265 265 261 257 250 234 218 217 215 198 187 191
123 113 102 93 85 81 77 72 70 64 60 61 58 52 51 49 46 44 40 33 32 36 37 35 34 31 32 38 36 29 27 27 24 26 28 20 13 11 9 10 12 11 13 19 19 15 14 14 11 9 9 10 10 10 13 16 16 16 17 16 12 8 4 1 359 357 358 5 6 351 311 286 270 258 257 258 258 255 246 231 223 207 173 175 189
119 115 110 103 92 84 79 73 72 68 60 57 56 54 52 49 47 46 41 32 28 34 38 36 34 31 29 35 38 31 27 28 26 27 31 26 17 13 10 9 12 12 12 18 21 17 14 13 13 12 9 9 9 10 14 18 19 19 20 19 18 15 10 7 7 5 3 4 6 8 8 348 318 286 264 260 260 260 258 248 238 214 169 170 190
113 112 108 102 89 84 81 74 70 69 63 57 54 52 50 49 48 46 41 33 28 33 39 39 36 35 31 32 40 38 28 25 26 25 30 32 24 17 14 12 12 13 13 15 17 15 13 13 13 13 11 11 10 11 15 19 21 21 22 22 22 20 16 15 16 16 13 10 7 8 12 10 355 332 299 275 270 270 267 251 239 227 196 184 195
111 113 114 111 98 88 83 74 68 66 63 59 54 50 48 48 48 44 39 35 32 29 35 39 35 35 35 32 41 48 36 25 26 26 27 35 30 21 18 18 15 14 15 14 13 14 14 14 13 11 11 12 12 14 17 20 22 23 24 25 25 24 22 21 21 22 22 20 18 17 18 21 19 4 337 312 309 300 267 234 230 229 216 204 202
136 137 130 117 101 89 81 72 66 61 60 60 56 50 47 47 50 47 38 39 39 28 30 42 37 34 40 35 35 50 43 28 25 27 28 34 31 22 20 22 19 18 18 15 12 13 13 13 12 11 10 10 12 14 17 20 23 24 24 26 27 28 28 28 25 23 24 25 26 28 28 32 38 36 30 33 45 46 129 198 215 215 199 188 181
143 133 123 111 100 91 82 74 68 61 58 59 58 55 50 45 49 50 41 44 46 32 27 39 38 34 42 38 30 43 48 35 25 27 28 30 28 24 22 23 21 21 22 18 15 13 12 11 9 8 9 9 9 11 14 19 23 25 24 26 28 29 31 33 31 28 27 29 31 34 36 42 49 47 45 57 79 84 96 126 151 160 157 153 149
122 115 111 103 94 88 80 73 69 64 59 57 58 58 54 43 41 48 46 45 49 45 38 36 32 31 38 38 29 33 46 44 33 28 28 29 28 25 22 22 23 23 21 19 18 16 14 11 7 7 7 7 8 9 11 16 20 23 24 26 28 30 31 33 34 33 32 35 38 40 42 45 52 52 45 50 67 78 80 90 112 129 135 137 136
114 111 110 104 97 91 83 74 68 64 58 56 59 59 55 44 38 44 48 40 37 50 51 41 32 31 35 36 31 27 35 48 44 34 30 31 31 29 25 22 23 22 21 19 16 14 13 11 10 10 7 6 7 7 8 11 15 18 21 23 26 31 33 34 36 35 35 37 40 43 45 46 50 53 47 42 51 67 72 69 77 95 107 114 119
113 111 111 105 96 89 82 74 69 66 57 51 57 60 57 51 43 38 41 40 36 44 50 44 34 29 29 36 34 24 26 46 54 40 33 33 32 29 27 26 25 23 22 21 16 12 11 9 10 10 7 5 7 7 6 7 9 11 15 19 21 26 30 34 37 37 36 38 39 41 45 47 50 54 53 45 46 58 65 60 57 66 80 91 99
117 110 104 98 89 83 82 77 71 68 62 54 54 57 57 58 52 37 30 34 34 36 45 48 41 27 19 29 35 24 22 41 53 41 35 37 36 31 29 31 34 35 33 29 24 18 13 10 9 9 6 5 9 8 6 5 5 5 9 14 17 20 23 27 32 36 38 41 42 41 42 44 46 49 50 48 47 51 56 55 50 53 63 75 85
111 97 90 88 84 81 83 81 74 71 68 63 56 52 54 58 57 49 42 38 33 29 29 37 44 34 17 18 30 26 23 34 42 35 35 38 34 33 35 34 35 41 43 42 38 32 25 19 17 16 10 4 4 5 5 7 8 6 5 10 17 19 19 20 26 34 40 43 43 41 38 38 41 43 44 44 45 48 54 56 52 49 52 61 70
108 100 96 94 89 84 83 81 79 75 71 69 63 55 54 53 49 48 49 45 46 44 27 13 23 30 18 18 29 25 19 26 30 23 26 39 30 27 31 33 30 34 43 46 45 39 34 31 28 25 18 8 3 3 5 9 12 10 6 10 21 24 21 17 20 30 39 41 40 38 36 35 38 41 43 43 43 45 49 54 57 55 53 56 60
117 112 108 102 96 92 87 81 81 79 75 74 67 54 52 55 47 40 33 24 40 60 44 13 4 6 4 16 30 22 15 26 30 17 12 22 26 19 20 26 27 26 34 45 46 41 39 35 30 26 19 13 9 6 4 7 11 10 6 6 18 28 27 21 18 25 32 36 37 38 37 37 39 42 44 45 46 47 47 50 56 60 59 60 62